Tracking 17264 objects as of 2-September-2015
HD Live streaming from Space Station

COSMOS 2251 DEB

Track COSMOS 2251 DEB now!
10-day predictions
COSMOS 2251 DEB is classified as:


NORAD ID: 38196
Int'l Code: 1993-036BSL
Perigee: 629.5 km
Apogee: 930.7 km
Inclination: 73.9 °
Period: 100.3 minutes
Semi major axis: 7151 km
RCS: 0.0033 m2 (small)
Launch date: June 16, 1993
Source: Commonwealth of Independent States (former USSR) (CIS)

Note: This is SATELLITE DEBRIS
Your satellite tracking list
Your tracking list is empty





NASA's NSSDC Master Catalog

Two Line Element Set (TLE):
1 38196U 93036BSL 15243.74618449 +.00002993 +00000-0 +81494-3 0  9998
2 38196 073.8953 030.3489 0210587 275.8369 081.8813 14.35621806110708

Source of the keplerian elements: AFSPC

N2YO: 353